FENGYUN 1C DEB, 30922

Orbit data source: Space-Track

FENGYUN 1C DEB, 30922 is space debris in SSO originally from a launch on Mon, 10 May 1999 UTC launched from the Taiyaun Space Center, China (TSC). Fengyun 1C debris stems from the Chinese weather satellite Fengyun-1C, which was intentionally destroyed by a Chinese anti-satellite missile in 2007. This event dramatically increased the amount of space debris, with thousands of trackable fragments posing hazards to satellites and human spaceflight. The Fengyun 1C debris cloud has become a focal point in discussions about space sustainability and the need for international regulations to prevent the creation of new debris.

Loading next visibility...
Identifier
30922, 1999-025AZL
Orbit
SSO
Country
Flag of CNCN / PRC
Related business
Manufacturer
Unknown
Mission
Spacecraft
Bus & Motor
Unknown
Mass
Unknown
Launch date (UTC)
1999-05-10 (27 years ago)
Launch vehicle
Unknown
Launch site
Taiyaun Space Center, China (TSC)
Object type
Payload
Rocket body
Debris
Shape & HBR
Unknown shape, 0.1 m
Radar Cross Section
Medium (>0.1 m² and <1 m²)

Expand to show TLE details & history
Last TLE update: 7 hours ago

TLE from 7 hours ago
0 FENGYUN 1C DEB
1 30922U 99025AZL 26178.29195927  .00000952  00000-0  48560-3 0  9991
2 30922  98.6289 193.6922 0013248 198.4401 225.7797 14.17954667993490
Epoch: 2026-06-27T07:00Z
TLE epoch observation values (Epoch: 2026-06-27T07:00:25.280Z)
Latitude
62.89761°
Longitude
156.0239°
Altitude
849.72 km
Speed
7.43 km/s
True Right ascension
11h 46m 08s
True Declination
62° 45' 35"
Sunlit
Object was in daylight at epoch
Visualization orbit readout
Latitude
Unknown
Longitude
Unknown
Altitude
Unknown
Speed
Unknown
Apparent Right ascension
Unknown
Apparent Declination
Unknown
Sunlit
N/A
Visualization observer readout
Local Sidereal Time
01:40:57
Azimuth
Unknown
Elevation
Unknown
Doppler factor
Unknown
Orbital elements
Apogee altitude
838.984 km
Perigee altitude
819.887 km
Semi-major axis
7,207.573 km
Eccentricity
0.00132
Inclination
98.6289°
RAAN
193.6922°
Arg. of periapsis
198.4401°
True anomaly
225.67103°
Mean anomaly
225.7797°
Eccentric anomaly
225.72535°
Mean motion
3.54699 °/min
Orbital period
101.49 mins
BSTAR
0.0004856
Loading maneuver chart data...
Computing Atmospheric mass density...

Documentation

Showing up to 5 results
|